Theta_e
321 321 319 318 317 316 316 316 316 318 320 321 322 323 324 325 324 328 335 335 337 336 336 335 339 339 338 339 337 339 347 342 341 344 344 343 346 348 345 347 348 349 354 352 350
321 321 321 320 318 317 317 316 316 316 318 320 322 323 324 325 323 327 333 334 333 336 335 336 337 338 336 336 336 340 345 339 340 340 341 342 343 347 345 347 352 351 352 352 350
320 320 321 321 320 318 317 317 316 316 317 318 320 323 324 325 325 330 332 332 333 336 335 334 335 337 336 335 335 339 338 338 338 338 338 340 343 344 343 345 345 353 353 352 351
319 320 321 322 321 319 317 317 316 316 316 317 319 321 323 324 331 330 330 330 336 335 334 335 336 337 337 337 334 337 335 336 336 335 336 338 338 341 342 343 342 354 353 353 352
319 319 321 322 322 320 317 318 317 316 316 316 317 320 323 327 326 327 326 330 337 336 334 337 337 336 336 336 334 335 336 334 334 334 335 336 339 338 341 343 343 352 353 353 352
319 319 320 321 322 320 317 317 318 317 316 316 316 317 320 326 327 327 327 332 335 336 337 337 336 335 335 335 335 336 335 335 335 335 336 335 337 338 344 342 344 349 352 352 351
319 319 320 321 321 319 317 317 318 317 316 316 316 316 323 326 325 326 326 329 335 336 337 336 336 333 334 335 335 335 335 336 336 335 335 335 338 342 341 341 346 347 348 353 352
319 318 320 321 321 319 317 317 317 317 316 316 315 315 324 324 324 325 326 330 334 335 335 334 335 333 334 335 334 335 337 337 336 334 336 335 342 344 340 340 342 347 348 350 352
319 318 320 322 321 318 318 317 317 317 316 316 315 316 324 323 323 324 325 330 333 333 334 333 333 333 334 335 335 336 337 337 335 335 333 335 338 344 340 338 342 346 349 347 350
320 319 321 323 321 319 318 317 317 316 316 315 322 328 325 323 323 322 325 330 333 334 334 334 334 334 335 335 337 340 339 335 335 335 333 334 340 345 343 338 344 347 350 350 350
320 319 322 323 321 319 317 316 318 321 325 321 321 322 323 323 322 323 327 330 332 333 334 334 334 334 335 336 336 337 335 333 335 334 333 335 336 343 342 341 344 346 348 349 351
320 319 323 323 321 319 317 325 327 326 327 323 323 322 324 325 324 326 328 330 332 333 333 335 334 334 335 336 335 333 333 334 334 334 333 335 336 342 342 343 344 344 346 346 346
320 319 323 323 320 319 318 321 325 327 329 328 322 322 322 324 325 327 329 330 332 333 333 335 334 334 335 335 332 332 333 333 333 334 334 335 345 345 341 338 344 346 345 347 348
320 321 324 323 319 320 319 319 323 326 333 328 323 322 323 323 326 328 329 330 332 333 333 334 334 333 334 333 333 333 334 333 331 331 333 336 345 344 342 342 341 345 344 344 345
320 323 325 323 327 325 324 324 326 327 339 327 325 326 325 325 327 329 328 329 332 332 333 332 332 333 332 332 332 333 333 333 332 331 332 341 343 347 338 340 340 342 343 344 344
320 326 324 323 320 324 327 327 327 330 336 327 328 327 326 327 327 327 327 327 330 331 331 332 332 333 331 332 333 333 331 332 332 331 333 341 342 345 342 342 343 341 342 344 342
321 326 322 324 326 324 325 327 329 331 330 329 329 327 327 328 327 327 327 328 329 329 330 330 332 331 331 331 333 331 331 332 334 333 336 335 343 344 341 341 341 342 342 344 344
323 325 322 322 326 325 327 329 332 331 332 329 328 327 327 328 328 327 327 327 329 330 330 329 328 331 330 331 332 332 332 333 335 337 340 338 348 344 342 340 340 341 342 343 344
326 325 323 320 322 326 329 330 333 334 331 329 328 327 327 328 329 327 327 327 329 330 329 330 330 331 331 332 332 333 334 335 334 335 337 342 343 343 340 343 341 343 343 343 344
326 332 331 326 322 327 330 328 331 333 333 330 328 329 328 329 328 328 328 329 329 330 330 331 332 332 332 332 333 334 336 336 334 342 345 343 349 347 345 346 343 343 344 346 346
323 332 328 325 326 327 329 330 332 333 334 333 330 330 330 330 329 329 329 329 330 330 330 330 336 338 338 335 334 334 335 335 335 341 350 351 352 341 340 345 343 342 345 346 346
328 336 327 325 327 328 329 329 329 332 333 334 335 334 331 332 330 329 330 331 330 330 329 330 334 341 337 335 335 336 337 337 340 345 342 340 346 342 341 342 342 344 346 347 348
329 336 327 325 328 328 328 329 331 331 333 332 333 334 334 331 331 330 331 332 331 330 329 330 331 337 341 339 337 336 335 336 336 337 338 345 349 342 340 341 340 346 350 351 350
327 338 327 326 326 329 331 329 331 330 332 332 335 334 334 334 332 331 332 332 330 330 331 332 332 334 342 343 342 341 337 337 335 335 335 341 337 343 344 344 343 349 350 350 352
329 338 336 333 327 330 332 332 330 330 330 331 333 337 337 337 333 332 332 333 332 331 333 333 334 336 341 339 340 337 338 334 333 334 334 334 333 345 345 345 345 349 352 351 351
332 336 327 336 327 329 328 331 330 329 332 331 335 336 335 337 336 332 334 334 334 333 332 333 337 339 341 337 338 337 335 335 335 334 334 334 340 345 342 343 346 350 350 352 351
331 330 332 336 337 329 329 329 331 331 331 333 334 335 337 336 334 335 336 337 337 333 334 334 333 338 340 339 339 341 339 337 337 335 333 334 349 347 345 345 349 350 349 351 349
Wind_Speed
10 10 10 11 12 12 12 12 12 11 11 10 9 9 9 9 8 9 10 5 8 9 8 6 11 9 11 14 2 11 7 8 10 11 6 6 10 18 13 28 15 12 19 20 20
12 12 12 12 12 12 13 13 13 13 12 10 9 9 9 11 13 15 15 13 13 11 10 12 16 9 14 4 3 1 2 4 8 7 4 8 10 31 14 12 5 18 18 18 19
13 12 12 12 13 13 13 13 13 13 12 11 10 9 9 10 14 18 17 15 14 11 11 12 14 15 21 4 4 4 6 3 7 8 11 11 6 12 18 6 4 20 17 17 18
15 14 14 13 13 13 12 12 13 13 12 11 10 10 9 9 4 4 7 12 13 11 12 13 17 20 18 3 6 6 3 3 4 7 2 6 9 4 10 8 10 19 16 15 16
16 16 15 13 12 13 12 11 12 12 12 11 10 10 9 11 20 8 8 10 12 11 13 14 19 16 11 2 5 7 1 7 8 6 2 1 5 6 10 10 8 16 13 12 13
18 17 16 14 12 12 11 10 11 11 10 10 10 10 9 17 8 3 3 8 12 13 14 15 15 12 13 1 5 5 5 6 4 2 2 1 4 2 11 6 4 11 14 17 17
19 18 18 15 12 11 9 9 9 9 9 9 8 9 11 21 5 8 10 11 14 15 15 14 15 9 15 10 5 5 12 9 11 3 2 8 11 4 7 2 8 6 8 20 18
20 20 19 14 11 8 7 8 8 8 7 7 7 7 11 12 20 12 11 12 14 14 15 11 9 13 17 15 4 11 14 9 7 3 6 8 6 6 3 5 2 7 9 12 16
22 22 20 13 9 6 6 6 6 7 6 6 5 6 17 11 16 16 15 15 14 14 13 8 8 16 21 13 12 11 9 4 3 8 2 7 4 10 4 3 1 6 12 8 11
23 23 20 12 7 5 5 5 5 6 5 6 8 7 23 17 16 19 18 17 16 15 14 13 12 14 16 14 7 2 16 9 3 6 2 11 7 13 6 1 7 5 12 20 20
23 24 20 10 5 6 9 6 3 5 15 17 17 17 4 15 13 19 18 18 17 16 14 17 13 15 19 15 7 2 8 8 7 7 3 10 4 11 7 5 1 2 3 21 21
24 24 19 9 6 9 14 8 8 7 7 26 18 22 11 6 11 16 19 17 17 16 17 16 15 19 17 3 5 7 9 13 8 8 5 9 3 10 8 5 3 2 4 4 3
25 24 17 7 6 11 16 17 9 7 9 20 27 17 15 13 16 22 22 22 16 16 17 18 19 14 15 1 7 9 13 15 6 1 8 10 7 20 32 42 4 3 3 8 4
26 24 13 4 2 5 14 9 11 7 6 16 21 17 18 16 17 22 21 22 14 17 18 17 19 12 3 9 10 15 6 10 3 8 9 15 3 14 13 17 19 8 8 7 1
26 23 10 8 3 7 6 5 5 5 6 19 20 11 17 21 20 20 20 22 17 14 15 11 17 8 11 13 12 15 6 9 12 12 15 13 6 3 4 11 22 12 8 9 2
27 19 8 8 12 9 1 4 3 6 7 14 14 16 17 23 15 20 21 22 17 11 13 16 13 10 9 11 11 6 12 13 15 12 12 16 8 5 8 12 18 9 7 7 7
27 14 8 11 7 5 6 7 6 10 20 18 18 19 19 13 14 15 17 18 14 11 14 13 14 9 13 14 13 9 13 11 11 11 2 11 9 8 21 19 10 14 9 8 10
24 8 9 13 7 6 6 8 9 15 13 18 16 19 17 17 16 15 17 15 19 17 11 12 13 16 12 13 13 15 16 10 7 8 11 12 8 3 12 12 12 16 13 12 11
16 6 9 8 15 7 12 11 8 10 11 15 18 18 17 16 10 14 17 18 18 18 17 11 12 15 17 13 12 16 15 17 11 19 6 9 8 19 30 6 14 13 13 12 10
12 8 11 8 11 9 10 17 19 22 3 11 14 14 15 18 12 16 17 17 17 18 18 19 9 15 14 12 12 14 13 15 8 4 4 4 5 8 22 12 12 12 15 13 12
10 8 14 11 12 12 11 18 22 4 7 7 11 11 15 13 15 12 13 13 18 17 14 17 5 10 19 9 14 10 12 13 7 7 5 8 6 14 21 20 12 9 12 15 14
8 5 9 14 12 14 13 23 13 8 5 14 10 13 12 12 13 15 14 16 17 18 15 17 10 17 16 14 10 13 6 11 7 8 10 10 9 22 21 8 11 12 10 14 15
8 10 7 15 9 12 19 24 14 11 14 12 8 11 13 11 9 12 12 11 14 15 12 14 12 3 9 13 5 9 13 2 7 10 6 9 4 8 12 11 6 15 12 10 10
8 4 8 16 22 18 15 20 9 14 18 13 8 13 10 12 9 10 13 7 7 12 6 5 14 12 10 3 19 13 10 4 8 8 12 11 5 13 14 10 7 14 13 14 13
6 6 9 7 14 15 19 13 18 17 17 15 9 13 10 10 12 13 16 15 13 11 7 9 14 5 19 24 24 18 15 8 5 5 6 12 10 15 10 14 13 13 14 10 9
7 6 15 29 20 18 14 11 12 16 16 15 11 15 15 15 13 14 13 11 13 14 14 14 12 2 3 3 11 16 17 13 8 10 8 5 7 11 9 14 14 14 11 18 13
9 8 15 18 18 12 14 16 13 16 16 20 16 16 17 17 19 8 6 16 12 17 14 17 15 12 1 10 4 17 21 12 9 2 3 7 13 11 8 5 11 12 12 18 14
Wind_Direction
336 324 312 301 293 284 275 270 268 268 268 271 279 288 297 300 286 277 256 238 225 259 275 315 259 267 268 266 291 303 286 58 42 86 106 13 76 97 359 356 74 59 127 138 152
337 328 317 304 292 284 276 269 264 263 265 267 272 282 294 301 290 271 246 246 254 255 266 286 285 267 250 242 282 327 245 58 340 47 51 110 86 108 116 52 184 97 108 135 152
338 330 320 306 295 286 276 268 262 259 259 263 268 273 286 299 305 249 225 236 246 238 258 292 296 274 274 215 343 42 87 28 120 26 339 345 155 59 136 187 103 120 129 146 155
341 333 322 310 297 287 275 264 260 257 255 257 260 265 274 281 269 181 205 222 227 230 257 273 268 261 273 172 127 248 162 167 82 157 132 343 351 28 62 81 12 121 135 149 158
341 335 325 313 300 290 276 261 255 253 252 253 255 258 260 260 252 243 287 224 217 223 243 258 268 276 296 142 114 268 269 194 158 182 148 187 297 45 60 68 80 109 126 146 165
343 336 328 316 302 290 276 260 251 247 245 246 249 252 259 256 238 206 221 222 211 222 240 249 267 337 294 310 277 19 274 287 210 257 319 315 285 85 97 75 79 125 153 162 169
342 337 330 318 303 290 273 256 247 242 238 239 242 250 256 240 246 247 241 226 219 225 237 242 258 272 269 272 186 225 267 267 206 110 316 339 260 100 69 162 125 156 164 163 171
342 338 333 320 304 286 263 250 241 235 228 228 232 243 256 245 245 246 232 225 220 229 243 276 236 270 277 284 184 237 249 254 113 67 130 248 150 152 167 109 298 138 146 178 169
342 339 334 321 303 271 246 236 229 226 215 211 208 240 257 242 224 222 218 218 213 219 228 265 253 252 254 248 226 213 215 303 169 134 288 251 194 135 143 91 256 161 174 186 184
341 339 335 319 298 244 215 207 212 210 200 201 217 247 248 222 218 212 211 215 214 218 221 227 234 240 243 238 264 51 289 153 197 119 20 287 91 147 126 31 163 159 179 99 277
340 339 334 314 283 215 180 172 193 230 206 208 180 214 120 212 191 197 199 206 225 215 219 210 226 230 238 229 106 292 327 315 264 116 274 293 307 122 92 116 90 272 209 150 194
339 338 332 307 264 211 197 201 337 334 240 232 251 227 278 156 175 199 190 199 210 220 215 222 222 239 248 91 320 263 243 262 236 148 196 252 330 79 97 73 83 87 229 117 121
337 336 327 300 257 223 214 229 322 316 272 213 213 225 221 223 210 198 191 201 209 225 211 234 210 234 254 171 227 242 255 265 352 138 222 244 85 37 354 343 314 115 237 109 117
335 333 319 283 250 254 237 237 266 301 280 161 197 217 211 198 231 194 193 199 215 221 230 224 258 193 239 241 245 250 268 355 302 261 270 265 145 46 358 307 322 166 44 107 164
333 329 300 221 212 192 0 215 228 267 272 147 180 191 187 204 194 191 189 212 235 219 240 206 248 175 242 249 225 265 352 309 296 274 261 81 77 279 299 323 287 291 137 101 351
331 324 279 225 239 188 165 239 236 235 230 169 146 172 172 217 172 180 183 216 231 238 245 265 207 264 235 242 254 306 285 278 249 241 257 141 131 216 224 203 254 128 131 123 101
330 311 249 213 207 236 239 225 225 244 138 148 165 177 181 202 170 167 189 203 218 225 219 225 262 216 260 238 234 238 250 258 240 226 312 314 157 202 224 225 157 147 139 122 105
327 289 241 217 216 248 214 223 248 235 201 151 168 175 190 191 170 183 188 202 221 229 201 207 216 235 197 240 255 226 246 266 285 291 222 243 75 185 207 152 119 124 136 128 117
327 278 267 214 216 189 226 223 238 271 151 162 172 180 199 193 179 182 204 212 208 233 250 210 214 208 200 212 219 250 251 266 270 257 227 45 30 21 343 190 135 130 126 115 115
324 249 256 193 194 194 234 245 267 298 31 169 174 189 200 183 217 183 198 217 229 209 252 277 284 154 191 217 240 267 283 296 268 3 61 29 67 137 265 259 151 148 131 124 132
313 255 158 176 177 219 234 239 244 358 327 317 212 178 229 192 194 216 218 218 211 229 228 256 278 330 304 197 236 209 242 259 311 127 101 350 307 210 208 233 137 133 152 140 134
283 270 176 170 196 226 234 246 285 275 195 280 312 302 213 219 195 230 211 220 201 226 204 239 270 178 243 219 222 277 353 303 284 38 222 227 224 249 213 169 128 164 101 105 112
291 272 201 189 220 224 233 255 258 233 255 219 250 276 292 244 195 220 217 232 180 214 211 227 255 227 347 317 201 254 273 211 215 254 281 54 45 138 133 112 148 128 118 110 114
295 251 162 212 233 258 271 232 248 240 273 269 274 256 233 269 193 223 233 127 165 232 25 272 266 274 155 242 303 303 317 324 314 317 349 133 248 151 131 136 148 125 149 143 138
257 337 10 250 226 240 250 262 227 241 211 249 249 268 273 254 259 197 247 168 180 200 246 236 247 281 141 178 224 273 271 280 253 308 308 331 334 123 135 144 155 146 124 134 132
294 28 314 294 222 221 251 274 260 224 241 211 239 248 235 256 241 241 225 218 185 186 219 223 241 138 77 145 313 227 248 250 271 263 257 278 75 76 109 131 146 146 148 128 130
353 329 270 284 289 209 225 225 253 271 238 247 224 240 253 229 233 335 67 29 329 195 200 226 231 237 118 168 28 305 324 290 282 71 0 304 103 118 104 112 144 154 164 138 139